TimeCEST,TemperatureF,Dew PointF,Humidity,Sea Level PressureIn,VisibilityMPH,Wind Direction,Wind SpeedMPH,Gust SpeedMPH,PrecipitationIn,Events,Conditions,WindDirDegrees,DateUTC
12:00 AM,66.2,60.8,83,30.12,6.2,North,3.5,-,N/A,,Partly Cloudy,350,2012-09-30 22:00:00
12:30 AM,66.2,60.8,83,30.12,6.2,Variable,2.3,-,N/A,,Partly Cloudy,0,2012-09-30 22:30:00
1:00 AM,66.2,60.8,83,30.12,6.2,Calm,Calm,-,N/A,,Partly Cloudy,0,2012-09-30 23:00:00
1:30 AM,64.4,60.8,88,30.12,6.2,Calm,Calm,-,N/A,,Partly Cloudy,0,2012-09-30 23:30:00
2:00 AM,63,58,80,30.14,12,Calm,Calm,,,,Scattered Clouds,,2012-10-01 00:00:00
2:00 AM,62.6,60.8,94,30.12,6.2,Calm,Calm,-,N/A,,Partly Cloudy,0,2012-10-01 00:00:00
2:30 AM,64.4,60.8,88,30.12,6.2,Variable,2.3,-,N/A,,Partly Cloudy,0,2012-10-01 00:30:00
3:00 AM,64.4,60.8,88,30.12,6.2,Variable,2.3,-,N/A,,Partly Cloudy,0,2012-10-01 01:00:00
3:30 AM,62.6,60.8,94,30.12,6.2,Variable,2.3,-,N/A,,Partly Cloudy,0,2012-10-01 01:30:00
4:00 AM,62.6,60.8,94,30.12,6.2,WNW,3.5,-,N/A,,Partly Cloudy,290,2012-10-01 02:00:00
4:30 AM,62.6,60.8,94,30.09,6.2,West,3.5,-,N/A,,Partly Cloudy,270,2012-10-01 02:30:00
5:00 AM,60.8,59.0,94,30.09,6.2,Variable,2.3,-,N/A,,Partly Cloudy,0,2012-10-01 03:00:00
5:30 AM,60.8,59.0,94,30.09,6.2,WNW,3.5,-,N/A,,Partly Cloudy,290,2012-10-01 03:30:00
6:00 AM,62.6,60.8,94,30.09,6.2,WNW,3.5,-,N/A,,Partly Cloudy,290,2012-10-01 04:00:00
6:30 AM,62.6,60.8,94,30.09,6.2,WNW,4.6,-,N/A,,Partly Cloudy,290,2012-10-01 04:30:00
7:00 AM,62.6,59.0,88,30.09,6.2,Variable,2.3,-,N/A,,Partly Cloudy,0,2012-10-01 05:00:00
7:30 AM,62.6,59.0,88,30.09,6.2,Calm,Calm,-,N/A,,Partly Cloudy,0,2012-10-01 05:30:00
8:00 AM,60,56,83,30.13,16,WSW,2.3,,,,Scattered Clouds,240,2012-10-01 06:00:00
8:00 AM,60.8,59.0,94,30.12,6.2,Variable,2.3,-,N/A,,Partly Cloudy,0,2012-10-01 06:00:00
8:30 AM,60.8,59.0,94,30.12,6.2,Variable,2.3,-,N/A,,Partly Cloudy,0,2012-10-01 06:30:00
9:00 AM,62.6,59.0,88,30.12,6.2,West,3.5,-,N/A,,Partly Cloudy,260,2012-10-01 07:00:00
9:30 AM,66.2,60.8,83,30.12,6.2,West,5.8,-,N/A,,Partly Cloudy,280,2012-10-01 07:30:00
10:00 AM,68.0,59.0,73,30.12,6.2,West,5.8,-,N/A,,Partly Cloudy,280,2012-10-01 08:00:00
10:30 AM,69.8,60.8,73,30.15,6.2,West,4.6,-,N/A,,Partly Cloudy,270,2012-10-01 08:30:00
11:00 AM,71.6,60.8,69,30.15,6.2,West,4.6,-,N/A,,Partly Cloudy,270,2012-10-01 09:00:00
11:30 AM,71.6,59.0,64,30.15,6.2,WSW,6.9,-,N/A,,Partly Cloudy,240,2012-10-01 09:30:00
12:00 PM,73.4,59.0,61,30.15,6.2,SW,5.8,-,N/A,,Partly Cloudy,230,2012-10-01 10:00:00
1:00 PM,75.2,59.0,57,30.15,6.2,SW,8.1,-,N/A,,Partly Cloudy,220,2012-10-01 11:00:00
1:30 PM,77.0,59.0,54,30.12,6.2,SSW,9.2,-,N/A,,Partly Cloudy,200,2012-10-01 11:30:00
2:00 PM,77,56,37,30.13,16,SW,10.4,,,,Scattered Clouds,230,2012-10-01 12:00:00
2:00 PM,77.0,59.0,54,30.12,6.2,SW,9.2,-,N/A,,Partly Cloudy,230,2012-10-01 12:00:00
2:30 PM,77.0,62.6,61,30.12,6.2,South,10.4,-,N/A,,Partly Cloudy,190,2012-10-01 12:30:00
3:00 PM,77.0,62.6,61,30.12,6.2,South,8.1,-,N/A,,Partly Cloudy,170,2012-10-01 13:00:00
3:30 PM,77.0,60.8,57,30.09,6.2,South,9.2,-,N/A,,Partly Cloudy,190,2012-10-01 13:30:00
4:00 PM,77.0,62.6,61,30.09,6.2,South,11.5,-,N/A,,Partly Cloudy,180,2012-10-01 14:00:00
4:30 PM,75.2,62.6,65,30.09,6.2,South,12.7,-,N/A,,Partly Cloudy,170,2012-10-01 14:30:00
5:00 PM,75.2,64.4,69,30.09,6.2,South,13.8,-,N/A,,Partly Cloudy,170,2012-10-01 15:00:00
5:30 PM,75.2,62.6,65,30.09,6.2,South,13.8,-,N/A,,Partly Cloudy,180,2012-10-01 15:30:00
6:00 PM,75.2,64.4,69,30.09,6.2,South,12.7,-,N/A,,Partly Cloudy,180,2012-10-01 16:00:00
6:30 PM,73.4,62.6,69,30.09,6.2,South,12.7,-,N/A,,Partly Cloudy,180,2012-10-01 16:30:00
7:00 PM,73.4,64.4,73,30.09,6.2,South,11.5,-,N/A,,Partly Cloudy,190,2012-10-01 17:00:00
7:30 PM,71.6,64.4,78,30.09,6.2,South,6.9,-,N/A,,Partly Cloudy,190,2012-10-01 17:30:00
8:00 PM,71,61,64,30.12,25,SSW,3.5,,,,Clear,200,2012-10-01 18:00:00
8:00 PM,71.6,64.4,78,30.12,-9999.0,South,3.5,-,N/A,,Clear,190,2012-10-01 18:00:00
8:30 PM,71.6,64.4,78,30.12,-9999.0,Calm,Calm,-,N/A,,Clear,0,2012-10-01 18:30:00
9:00 PM,69.8,64.4,83,30.12,-9999.0,Calm,Calm,-,N/A,,Clear,0,2012-10-01 19:00:00
9:30 PM,69.8,64.4,83,30.15,-9999.0,Calm,Calm,-,N/A,,Clear,0,2012-10-01 19:30:00
10:00 PM,69.8,64.4,83,30.15,-9999.0,Calm,Calm,-,N/A,,Clear,0,2012-10-01 20:00:00
10:30 PM,68.0,64.4,88,30.15,-9999.0,Calm,Calm,-,N/A,,Clear,0,2012-10-01 20:30:00
11:00 PM,66.2,62.6,88,30.15,-9999.0,Variable,1.2,-,N/A,,Clear,0,2012-10-01 21:00:00
11:30 PM,66.2,62.6,88,30.15,-9999.0,Variable,2.3,-,N/A,,Clear,0,2012-10-01 21:30:00